Date String (YYYY-MM-DD hh:mm:ss) UTC,Instrument flags,Ambient pressure (hPa),Sample flow (lpm),Bypass flow (lpm),Sample temperature (°C),Ambient temperature (°C),ASC tube jacket temperature (°C),LED temperature (°C),Box temperature (°C),Sample RH (%),Span deviation,Mass concentration (μg/m³),Mass concentration (μg/m³),Mass concentration (μg/m³)
DateTimeUTC,F1_M11,P_M11,Q1_M11,Q2_M11,T1_M11,T2_M11,T3_M11,T4_M11,T5_M11,U1_M11,ZSPAN_M11,X0_M11,X2_M11,X1_M11
2022-04-15 03:00:00,,0819.4,5.00,0.00,24.0,23.0,00.0,33.0,25.6,06.5,0000.0,0007.64,0003.24,0002.06
2022-04-15 03:01:00,,0819.4,5.01,0.00,23.9,23.0,00.0,33.0,25.6,06.5,0000.0,0007.56,0003.23,0002.07
2022-04-15 03:02:00,,0819.4,5.00,0.00,23.9,23.0,00.0,33.0,25.6,06.5,0000.0,0007.66,0003.25,0002.09
2022-04-15 03:03:00,,0819.5,5.00,0.00,23.9,23.0,00.0,33.0,25.6,06.5,0000.0,0007.64,0003.26,0002.10
2022-04-15 03:04:00,,0819.5,5.00,0.00,23.9,23.0,00.0,33.0,25.6,06.4,0000.0,0007.79,0003.28,0002.10
2022-04-15 03:05:00,,0819.5,4.99,0.00,23.9,22.9,00.0,33.0,25.6,06.5,0000.0,0008.15,0003.35,0002.11
2022-04-15 03:06:00,,0819.5,5.02,0.00,23.9,22.9,00.0,32.9,25.6,06.4,0000.0,0009.04,0003.38,0002.12
2022-04-15 03:07:00,,0819.6,4.99,0.00,23.8,22.9,00.0,32.9,25.5,06.5,0000.0,0009.24,0003.37,0002.12
2022-04-15 03:08:00,,0819.6,5.00,0.00,23.8,22.9,00.0,32.9,25.5,06.5,0000.0,0009.11,0003.37,0002.13
2022-04-15 03:09:00,,0819.5,4.99,0.00,23.8,22.9,00.0,32.9,25.5,06.5,0000.0,0008.86,0003.33,0002.13
2022-04-15 03:10:00,,0819.5,5.01,0.00,23.8,22.9,00.0,32.9,25.5,06.4,0000.0,0008.21,0003.28,0002.11
2022-04-15 03:11:00,,0819.5,5.01,0.00,23.7,22.9,00.0,32.9,25.5,06.5,0000.0,0007.94,0003.24,0002.11
2022-04-15 03:12:00,,0819.6,5.00,0.00,23.7,22.9,00.0,32.9,25.5,06.5,0000.0,0008.01,0003.25,0002.11
2022-04-15 03:13:00,,0819.6,5.00,0.00,23.7,22.9,00.0,32.8,25.5,06.5,0000.0,0008.70,0003.26,0002.12
2022-04-15 03:14:00,,0819.6,5.00,0.00,23.7,22.9,00.0,32.8,25.5,06.5,0000.0,0008.64,0003.26,0002.11
2022-04-15 03:15:00,,0819.6,4.99,0.00,23.7,22.9,00.0,32.8,25.5,06.4,0000.0,0008.54,0003.26,0002.11
2022-04-15 03:16:00,,0819.5,5.00,0.00,23.7,22.8,00.0,32.8,25.4,06.3,0000.0,0008.23,0003.22,0002.11
2022-04-15 03:17:00,,0819.6,5.00,0.00,23.7,22.8,00.0,32.8,25.4,06.3,0000.0,0007.10,0003.20,0002.10
2022-04-15 03:18:00,,0819.6,5.00,0.00,23.6,22.8,00.0,32.8,25.4,06.3,0000.0,0006.98,0003.21,0002.09
2022-04-15 03:19:00,,0819.5,5.00,0.00,23.6,22.8,00.0,32.8,25.3,06.2,0000.0,0007.04,0003.21,0002.08
2022-04-15 03:20:00,,0819.5,5.01,0.00,23.6,22.7,00.0,32.7,25.3,06.2,0000.0,0007.00,0003.20,0002.08
2022-04-15 03:21:00,,0819.5,5.00,0.00,23.6,22.7,00.0,32.7,25.3,06.1,0000.0,0007.45,0003.21,0002.10
2022-04-15 03:22:00,,0819.5,5.00,0.00,23.6,22.7,00.0,32.7,25.3,06.1,0000.0,0007.65,0003.20,0002.08
2022-04-15 03:23:00,,0819.5,4.99,0.00,23.6,22.7,00.0,32.7,25.3,06.1,0000.0,0007.76,0003.21,0002.07
2022-04-15 03:24:00,,0819.6,5.00,0.00,23.5,22.7,00.0,32.7,25.3,06.1,0000.0,0006.80,0003.21,0002.05
2022-04-15 03:25:00,,0819.5,5.00,0.00,23.5,22.7,00.0,32.7,25.2,06.1,0000.0,0006.59,0003.17,0002.04
2022-04-15 03:26:00,,0819.5,5.01,0.00,23.5,22.6,00.0,32.6,25.2,06.1,0000.0,0006.73,0003.19,0002.04
2022-04-15 03:27:00,,0819.6,5.00,0.00,23.5,22.6,00.0,32.6,25.2,06.1,0000.0,0007.27,0003.20,0002.05
2022-04-15 03:28:00,,0819.5,5.00,0.00,23.5,22.6,00.0,32.6,25.2,06.1,0000.0,0007.74,0003.20,0002.04
2022-04-15 03:29:00,,0819.6,5.01,0.00,23.5,22.6,00.0,32.6,25.2,06.1,0000.0,0007.75,0003.21,0002.06
2022-04-15 03:30:00,,0819.6,5.00,0.00,23.5,22.6,00.0,32.6,25.2,06.1,0000.0,0007.69,0003.19,0002.06
2022-04-15 03:31:00,,0819.5,5.00,0.00,23.4,22.6,00.0,32.6,25.1,06.1,0000.0,0007.75,0003.22,0002.05
2022-04-15 03:32:00,,0819.5,4.99,0.00,23.4,22.6,00.0,32.5,25.1,06.1,0000.0,0007.55,0003.23,0002.03
2022-04-15 03:33:00,,0819.5,4.99,0.00,23.4,22.6,00.0,32.5,25.1,06.0,0000.0,0007.44,0003.27,0002.05
2022-04-15 03:34:00,,0819.5,5.00,0.00,23.4,22.6,00.0,32.5,25.1,06.1,0000.0,0007.65,0003.27,0002.06
2022-04-15 03:35:00,,0819.6,5.00,0.00,23.4,22.6,00.0,32.5,25.1,06.1,0000.0,0007.76,0003.27,0002.06
2022-04-15 03:36:00,,0819.6,5.00,0.00,23.4,22.6,00.0,32.5,25.1,06.1,0000.0,0007.91,0003.31,0002.06
2022-04-15 03:37:00,,0819.6,5.00,0.00,23.4,22.6,00.0,32.5,25.1,06.0,0000.0,0007.91,0003.29,0002.05
2022-04-15 03:38:00,,0819.7,5.00,0.00,23.4,22.6,00.0,32.5,25.1,06.1,0000.0,0007.57,0003.25,0002.04
2022-04-15 03:39:00,,0819.7,5.00,0.00,23.3,22.5,00.0,32.5,25.0,06.1,0000.0,0007.01,0003.24,0002.04
2022-04-15 03:40:00,,0819.7,5.00,0.00,23.3,22.5,00.0,32.4,25.1,06.1,0000.0,0007.59,0003.27,0002.04
2022-04-15 03:41:00,,0819.7,5.00,0.00,23.3,22.5,00.0,32.4,25.0,06.1,0000.0,0007.85,0003.27,0002.04
2022-04-15 03:42:00,,0819.7,5.01,0.00,23.3,22.5,00.0,32.4,25.0,06.1,0000.0,0008.79,0003.27,0002.04
2022-04-15 03:43:00,,0819.7,5.00,0.00,23.3,22.5,00.0,32.4,25.0,06.1,0000.0,0008.95,0003.29,0002.04
2022-04-15 03:44:00,,0819.7,5.00,0.00,23.3,22.4,00.0,32.4,25.0,06.1,0000.0,0008.87,0003.26,0002.02
2022-04-15 03:45:00,,0819.7,5.00,0.00,23.3,22.4,00.0,32.4,25.0,06.1,0000.0,0008.54,0003.25,0002.01
2022-04-15 03:46:00,,0819.7,5.00,0.00,23.2,22.4,00.0,32.4,24.9,06.2,0000.0,0008.28,0003.20,0002.01
2022-04-15 03:47:00,,0819.7,4.99,0.00,23.2,22.4,00.0,32.3,24.9,06.2,0000.0,0008.15,0003.15,0002.01
2022-04-15 03:48:00,,0819.7,4.99,0.00,23.2,22.4,00.0,32.3,24.9,06.2,0000.0,0008.12,0003.16,0002.01
2022-04-15 03:49:00,,0819.7,5.00,0.00,23.2,22.3,00.0,32.3,24.9,06.2,0000.0,0008.32,0003.23,0002.03
2022-04-15 03:50:00,,0819.7,4.99,0.00,23.2,22.3,00.0,32.3,24.9,06.3,0000.0,0008.47,0003.24,0002.01
2022-04-15 03:51:00,,0819.6,5.00,0.00,23.1,22.3,00.0,32.3,24.9,06.3,0000.0,0008.37,0003.25,0002.01
2022-04-15 03:52:00,,0819.7,5.00,0.00,23.1,22.3,00.0,32.3,24.9,06.3,0000.0,0007.99,0003.25,0002.01
2022-04-15 03:53:00,,0819.7,5.00,0.00,23.1,22.3,00.0,32.3,24.9,06.3,0000.0,0007.89,0003.29,0002.02
2022-04-15 03:54:00,,0819.7,5.02,0.00,23.1,22.3,00.0,32.2,24.9,06.3,0000.0,0007.58,0003.29,0002.05
2022-04-15 03:55:00,,0819.7,4.99,0.00,23.1,22.3,00.0,32.2,24.9,06.3,0000.0,0007.54,0003.31,0002.06
2022-04-15 03:56:00,,0819.7,5.00,0.00,23.1,22.3,00.0,32.2,24.8,06.3,0000.0,0007.51,0003.31,0002.06
2022-04-15 03:57:00,,0819.7,5.00,0.00,23.1,22.3,00.0,32.2,24.8,06.3,0000.0,0007.59,0003.35,0002.07
2022-04-15 03:58:00,,0819.7,5.00,0.00,23.1,22.3,00.0,32.2,24.9,06.3,0000.0,0007.66,0003.36,0002.07
2022-04-15 03:59:00,,0819.7,5.00,0.00,23.1,22.3,00.0,32.2,24.8,06.3,0000.0,0007.74,0003.37,0002.09
